Location: George Washington National Forest Helicopter Landing Site
(38.6463°N, 79.0851°W)
Time: 05:38:14
(UTC-04:00)

Tiros 1 despin weight - Pass Details

Date: 27 August 2019
Orbit: 595 x 642 km, 48.2° (Epoch: 14 September)

Event Time Altitude Azimuth Distance (km) Brightness Sun altitude
Rises 21:40:59 0° 217° (SW) 2,812 ? -20.1°
Reaches altitude 10° 21:43:20 10° 211° (SSW) 1,914 ? -20.5°
Enters shadow 21:45:45 28° 190° (S) 1,105 ? -20.9°
Maximum altitude 21:47:29 43° 140° (SE) 839 - -21.1°
Drops below altitude 10° 21:51:40 10° 69° (ENE) 1,932 - -21.8°
Sets 21:54:03 0° 62° (ENE) 2,843 - -22.2°
